Facebook Twitter

Wetterstation Budapest/Lorinc

aktuelles Wetter
  Temperatur Wetter Niederschlag Luftdruck Wind
Fr, 21:00 Uhr 17° - - 1011.4 hPa 11 km/h NW

Böen 29 km/h
Fr, 20:00 Uhr 18° - 0.1 mm 1011.1 hPa 12 km/h NW

Böen 29 km/h
Fr, 19:00 Uhr 17° - - 1010.7 hPa 6 km/h W

Böen 25 km/h
Fr, 18:00 Uhr 18° - - 1010.7 hPa 13 km/h W

Böen 32 km/h
Fr, 17:00 Uhr 19° - - 1010.3 hPa 18 km/h NW

Böen 40 km/h
Fr, 16:00 Uhr 20° - - 1010.2 hPa 19 km/h NW

Böen 40 km/h
Fr, 15:00 Uhr 20° - - 1010.3 hPa 22 km/h W

Böen 40 km/h
Fr, 14:00 Uhr 19° - 0.1 mm 1010.3 hPa 15 km/h W

Böen 32 km/h
Fr, 13:00 Uhr 19° - - 1010.3 hPa 15 km/h NW

Böen 36 km/h
Fr, 12:00 Uhr 19° - - 1010 hPa 21 km/h W

Böen 36 km/h
Fr, 11:00 Uhr 19° - - 1010.2 hPa 15 km/h W

Böen 29 km/h
Fr, 10:00 Uhr 19° - - 1010 hPa 14 km/h W

Böen 29 km/h
Fr, 09:00 Uhr 20° - - 1009.2 hPa 14 km/h NW

Böen 29 km/h
Fr, 08:00 Uhr 19° - 1 mm 1009.1 hPa 9 km/h W
Fr, 07:00 Uhr 18° - - 1008.9 hPa 6 km/h W
Fr, 06:00 Uhr 18° - - 1008.8 hPa 4 km/h SW
Fr, 05:00 Uhr 18° - - 1009.1 hPa 3 km/h S
Fr, 04:00 Uhr 19° - - 1009.9 hPa 3 km/h S
Fr, 03:00 Uhr 19° - - 1010.5 hPa 4 km/h SO
Fr, 02:00 Uhr 19° - 0.7 mm 1011.2 hPa 4 km/h SO

Alle Zeitangaben MESZ